Starlink 3131

operational
NORAD ID: 49427 Int'l Des: 2021-104 Owner: SPXS Country: US Constellation: starlink
LEOCIRCULAR

Über Starlink 3131

Beschreibung wird geladen...

Live-Position

3D-Globus wird geladen...

Nächste Überflüge

Höhenverlauf

Altitude vs Time

uPlot chart will show altitude changes over time

Zweizeiliger Elementsatz

1 49427U 21104V 25350.93855478 .00001254 00000-0 96855-4 0 9997
2 49427 53.2167 240.6136 0001446 86.2395 273.8762 15.08840783226146
Epoch: 16. Dez. 2025 • Age: 13 hours

Aktueller Status

Höhe 545.3 km
Geschwindigkeit 7.60 km/s
Subsatellitenpunkt 53.21°N, 73.15°E
Startdatum 13. Nov. 2021
Alter 4 years
Typ internet

Technische Details

Klassifizierung Payload
Masse 290.00 kg
Trockenmasse 270.00 kg
Gesamtmasse 290.00 kg
Länge 0.20 m
Durchmesser 2.80 m
Spannweite 9.00 m
Form Box + pan
Hersteller SPXS
Bus-Typ Starlink
Phasenstatus In Orbit
Besitzer/Staat SPXS/US

Große Konstellationen

Loading constellations...